Regional Weather Roundup
Issued by NWS Newport/Morehead, NC

Current Version | Previous Version | Text Only | Print | Product List | Glossary Off
Versions: 1 2 3 4 5 6 7 8 9 10 11 12 13 14 15 16 17 18 19 20 21 22 23 24 25 26 27 28 29 30 31 32 33 34 35 36 37 38 39 40 41 42 43 44 45 46 47 48 49 50
000 ASUS42 KMHX 020712 RWRMHX WEATHER ROUNDUP FOR EASTERN NORTH CAROLINA NATIONAL WEATHER SERVICE NEWPORT/MOREHEAD CITY NC 200 AM EST MON MAR 02 2015 NOTE: "FAIR" INDICATES FEW OR NO CLOUDS BELOW 12,000 FEET WITH NO SIGNIFICANT WEATHER AND/OR OBSTRUCTIONS TO VISIBILITY NCZ015>017-031-032-045>047-102-103-020800- NORTH COAST CITY SKY/WX TMP DP RH WIND PRES REMARKS EDENTON FOG 36 36 98 W5 30.24F VSB 3/4 ELIZABETH CITY CLOUDY 37 36 96 SW6 30.22F FOG KITTY HAWK FOG 37 37 100 W8 30.21F VSB 1/4 MANTEO CLOUDY 39 39 100 NW6 30.24S FOG $$ NCZ045>047-081-094-103-104-020800- CENTRAL COAST CITY SKY/WX TMP DP RH WIND PRES REMARKS FRISCO CLOUDY 42 42 100 SW9 30.22F FOG SWANQUARTER N/A 41 N/A N/A W6 30.21S $$ NCZ095-097-098-100-101-020800- SOUTHERN COAST CITY SKY/WX TMP DP RH WIND PRES REMARKS BEAUFORT CLOUDY 45 45 100 SW7 30.25F FOG CEDAR ISLAND N/A 45 N/A N/A SW6 30.27F JACKSONVILLE FOG 43 42 97 SW3 30.26F VSB 1/2 PINEY ISLAND N/A N/A N/A N/A MISG 30.24F WILMINGTON CLOUDY 43 42 97 S3 30.28F FOG $$ NCZ011>013-027>030-043-044-078>080-089-090>093-098-020800- COASTAL PLAIN CITY SKY/WX TMP DP RH WIND PRES REMARKS AHOSKIE FOG 33 33 98 CALM 30.23F VSB 3/4 CLINTON CLOUDY 38 38 100 W5 30.29F FOG ELIZABETHTOWN FOG 40 40 100 W3 30.28F VSB 3/4 GOLDSBORO CLOUDY 39 39 100 SW2 30.24F FOG GREENVILLE CLOUDY 37 36 93 CALM 30.26F FOG HAVELOCK FOG 45 43 93 W6 30.27F VSB 1/2 KENANSVILLE FOG 39 39 100 W3 30.28F VSB 1 KINSTON CLOUDY 39 39 99 SW5 30.27F FOG NEW BERN CLOUDY 43 42 97 SW5 30.26F FOG RICHLANDS CLOUDY 43 39 87 W6 30.28F VSB 1/2 ROCKY MOUNT CLOUDY 37 36 96 SW7 30.25F FOG WASHINGTON CLOUDY 38 37 98 SW5 30.25F FOG WHITEVILLE FOG 41 40 97 SW3 30.29F VSB 1/2 $$ AMZ130-135-150-152-154-156-158-170-250-252-270-ANZ085-086-088-633-658-670-020800- MARINE OBSERVATIONS STATION/POSITION TIME TEMP WIND PRES WAVE SWELL AIR SEA DIR/SP/G HT/PER HT/PER (UTC) (F) (DEG/KT/KT) (MB) (FT/S) (FT/S) CHESAPEAKE LIGHT 0600 34 270/ 9/ 10 1024.4 64 E VA BEACH 0650 43 53 270/ 17/ 19 1022.1 5/ 6 3/ 9 DUCK 0600 38 34 250/ 11/ 13 N/A 2 E DUCK 0611 N/A 3/ 6 10 NE DUCK 0622 37 N/A 4/ 6 OREGON INLET 0600 40 42 230/ 7/ 9 N/A HATTERAS CG 0618 44 41 220/ 7/ 8 1024.7 CAPE LOOKOUT 0700 46 230/ 4/ 6 1024.5 BEAUFORT LAB 0600 45 43 240/ 2/ 3 1024.8 27 SE WRIGHTSVLE NOT AVBL 5 SE WRIGHTSVLE NOT AVBL 225 S CAPE HAT 0650 70 72 190/ 14/ 17 1026.8 7/ 7 5/ 7 41 SE CHARLESTON 0650 56 68 340/ 6/ 10 1026.3 5/ 8 5/ 8 $$

USA.gov is the U.S. government's official web portal to all federal, state and local government web resources and services.